Sheridan, WY

11:54 AM MDT on August 17, 2017 (GMT -0600)
Sheridan County

Weather History for KSHR - January, 2014

Change the Weather History Date:

Thursday, January 9, 2014

  Actual Average Record
Temperature  
Mean Temperature 23 °F 24 °F  
Max Temperature 33 °F 36 °F 70 °F (1953)
Min Temperature 13 °F 11 °F -25 °F (1973)
Degree Days  
Heating Degree Days 42 42  
Month to date heating degree days 402 378  
Since 1 July heating degree days 3622 3561  
Cooling Degree Days 0 0  
Month to date cooling degree days 0 0  
Year to date cooling degree days 0 0  
Moisture  
Dew Point 18 °F    
Average Humidity 72    
Maximum Humidity 88    
Minimum Humidity 56    
Precipitation  
Precipitation 0.00 in 0.02 in 0.30 in (1924)
Month to date precipitation 0.27 0.15  
Year to date precipitation 0.27 0.15  
Sea Level Pressure  
Sea Level Pressure 29.77 in    
Wind  
Wind Speed 3 mph (West)    
Max Wind Speed 12 mph    
Max Gust Speed 14 mph    
Visibility 10 miles    
Events      
T = Trace of Precipitation, MM = Missing Value Source: NWS Daily Summary

Daily Weather History Graph

Daily Weather History Graph

Search for Another Location

Airport or City:

Trip Planner

Search our weather history database for the weather conditions in past years. The results will help you decide how hot, cold, wet, or windy it might be!

Date:

Astronomy

Jan. 09, 2014 Rise Set
Actual Time 7:44 AM MST 4:46 PM MST
Civil Twilight 7:11 AM MST 5:19 PM MST
Nautical Twilight 6:34 AM MST 5:55 PM MST
Astronomical Twilight 5:59 AM MST 6:31 PM MST
Moon 12:20 PM MST (1/9) 1:48 AM MST (1/9)
Length of Visible Light 10h 07m
Length of Day
9h 01m
Waxing Gibbous, 66% of the Moon is Illuminated
Jan 9
Waxing Gibbous
Jan 15
Full
Jan 23
Last Quarter
Jan 30
New
Feb 6
First Quarter

Hourly Weather History & Observations

Time (MST) Temp. Windchill Dew Point Humidity Pressure Visibility Wind Dir Wind Speed Gust Speed Precip Events Conditions
12:53 AM 17.1 °F 11.7 °F 12.9 °F 84% 29.89 in 10.0 mi South 3.5 mph - N/A   Clear
1:53 AM 21.0 °F 16.2 °F 17.1 °F 85% 29.84 in 10.0 mi Variable 3.5 mph - N/A   Clear
2:53 AM 18.0 °F - 14.0 °F 84% 29.86 in 10.0 mi Calm Calm - N/A   Clear
3:53 AM 19.0 °F - 15.1 °F 85% 29.83 in 10.0 mi Calm Calm - N/A   Clear
4:53 AM 21.0 °F - 14.0 °F 74% 29.83 in 10.0 mi Calm Calm - N/A   Clear
5:53 AM 18.0 °F 12.7 °F 12.0 °F 78% 29.81 in 10.0 mi SSW 3.5 mph - N/A   Clear
6:53 AM 18.0 °F 9.8 °F 12.9 °F 81% 29.79 in 10.0 mi Variable 5.8 mph - N/A   Clear
7:53 AM 21.0 °F - 15.1 °F 78% 29.78 in 10.0 mi Calm Calm - N/A   Partly Cloudy
8:53 AM 23.0 °F 17.0 °F 17.1 °F 78% 29.79 in 10.0 mi Variable 4.6 mph - N/A   Mostly Cloudy
9:53 AM 24.1 °F 19.7 °F 16.0 °F 71% 29.78 in 10.0 mi NW 3.5 mph - N/A   Scattered Clouds
10:53 AM 26.1 °F 20.5 °F 18.0 °F 71% 29.76 in 10.0 mi NW 4.6 mph - N/A   Overcast
11:53 AM 30.0 °F 26.5 °F 21.0 °F 69% 29.73 in 10.0 mi North 3.5 mph - N/A   Overcast
12:53 PM 30.0 °F 25.2 °F 21.0 °F 69% 29.70 in 10.0 mi WNW 4.6 mph - N/A   Overcast
1:53 PM 30.0 °F 26.5 °F 21.9 °F 72% 29.67 in 10.0 mi East 3.5 mph - N/A   Overcast
2:53 PM 30.9 °F 27.5 °F 24.1 °F 76% 29.69 in 10.0 mi NW 3.5 mph - N/A   Mostly Cloudy
4:53 PM 30.0 °F 26.5 °F 23.0 °F 75% 29.73 in 10.0 mi SSW 3.5 mph - N/A   Overcast
5:53 PM 28.9 °F 22.8 °F 23.0 °F 78% 29.75 in 10.0 mi South 5.8 mph - N/A   Overcast
6:53 PM 30.9 °F - 23.0 °F 72% 29.75 in 10.0 mi Calm Calm - N/A   Overcast
7:53 PM 28.0 °F 24.2 °F 21.9 °F 78% 29.76 in 10.0 mi South 3.5 mph - N/A   Partly Cloudy
8:53 PM 30.0 °F 22.4 °F 19.9 °F 66% 29.76 in 10.0 mi NNW 8.1 mph - N/A   Clear
9:53 PM 33.1 °F 28.7 °F 19.9 °F 59% 29.76 in 10.0 mi NW 4.6 mph - N/A   Overcast
10:53 PM 30.0 °F 25.2 °F 19.0 °F 64% 29.75 in 10.0 mi WNW 4.6 mph - N/A   Overcast
11:53 PM 25.0 °F - 16.0 °F 69% 29.73 in 10.0 mi Calm Calm - N/A   Clear